Location: Laguna de la Cañada del Gallo
(40.3974°N, 5.2096°W)
Time: 02:19:05
(UTC+00:00)

Okean-O - Visible Passes

Search period start: 19 July 2024 00:00
Search period end: 29 July 2024 00:00
Orbit: 632 x 635 km, 98.0° (Epoch: 18 July)

Date Brightness Start Highest point End Pass type
(mag) Time Alt. Az. Time Alt. Az. Time Alt. Az.
19 Jul 3.5 20:13:34 10° SE 20:17:30 33° ENE 20:21:26 10° N visible
19 Jul 4.7 21:50:31 10° SW 21:53:54 22° W 21:57:19 10° NW visible
20 Jul 2.8 20:34:36 10° SSE 20:38:54 56° ENE 20:43:12 10° N visible
20 Jul 5.2 22:13:37 10° WSW 22:15:36 13° W 22:17:34 10° WNW visible
21 Jul 2.6 20:56:02 10° SSE 21:00:21 84° W 21:04:47 10° NNW visible
22 Jul 3.4 21:17:49 11° S 21:21:52 48° W 21:26:08 10° NNW visible
23 Jul 4.3 21:39:40 10° SSW 21:43:26 28° W 21:47:15 10° NW visible
24 Jul 3.1 20:24:24 10° SE 20:28:32 42° ENE 20:32:42 10° N visible
24 Jul 5.1 22:02:16 10° SW 22:05:05 17° W 22:07:55 10° NW visible
25 Jul 2.6 20:45:43 11° SSE 20:49:56 74° ENE 20:54:21 10° N visible
26 Jul 3.0 21:07:30 13° S 21:11:25 64° WSW 21:15:47 10° NNW visible
27 Jul 3.9 21:29:16 12° SSW 21:32:57 36° W 21:37:01 10° NNW visible
28 Jul 3.5 20:14:13 10° SE 20:18:08 33° ENE 20:22:04 10° N visible
28 Jul 4.7 21:51:09 10° SW 21:54:32 22° W 21:57:56 10° NW visible
